Precipitable_Water
0.69 0.70 0.71 0.70 0.65 0.63 0.62 0.62 0.64 0.69 0.71 0.72 0.71 0.68 0.70 0.71 0.73 0.81 0.91 1.00 1.05 1.02 0.97 0.92 0.92 0.93 0.85 0.58 0.51 0.74 0.83 0.85 0.82 0.93 0.67 0.47 0.38 0.35 0.27 0.33 0.38 0.30 0.39 0.60 0.65 0.66 0.68
0.63 0.65 0.66 0.67 0.70 0.69 0.66 0.62 0.62 0.65 0.70 0.71 0.70 0.69 0.68 0.71 0.75 0.80 0.85 0.89 1.02 1.06 1.05 1.00 0.95 0.94 0.71 0.46 0.78 0.75 0.86 0.78 0.79 0.86 0.69 0.52 0.42 0.43 0.33 0.32 0.32 0.34 0.33 0.48 0.59 0.62 0.66
0.60 0.60 0.61 0.64 0.65 0.64 0.71 0.69 0.61 0.61 0.68 0.69 0.70 0.70 0.70 0.71 0.77 0.80 0.82 0.80 0.83 0.98 1.04 1.03 0.98 0.87 0.68 0.61 0.77 0.74 0.72 0.78 0.80 0.84 0.67 0.57 0.55 0.42 0.37 0.31 0.37 0.35 0.26 0.35 0.47 0.55 0.59
0.58 0.59 0.59 0.59 0.57 0.58 0.63 0.70 0.71 0.57 0.64 0.68 0.70 0.70 0.70 0.70 0.74 0.79 0.83 0.83 0.81 0.87 1.01 1.01 1.00 0.85 0.56 0.86 0.85 0.72 0.65 0.76 0.83 0.90 0.77 0.62 0.62 0.49 0.35 0.36 0.32 0.28 0.28 0.21 0.36 0.45 0.53
0.55 0.55 0.56 0.55 0.55 0.56 0.58 0.68 0.71 0.65 0.59 0.66 0.68 0.69 0.69 0.70 0.72 0.73 0.79 0.86 0.87 0.90 0.97 0.98 0.86 0.76 0.54 0.74 0.65 0.73 0.67 0.56 0.74 0.81 0.73 0.66 0.54 0.41 0.33 0.25 0.23 0.27 0.19 0.20 0.25 0.38 0.40
0.55 0.53 0.53 0.54 0.55 0.57 0.61 0.68 0.71 0.70 0.55 0.62 0.65 0.66 0.67 0.68 0.70 0.73 0.75 0.81 0.86 0.85 0.87 0.89 0.82 0.61 0.61 0.56 0.64 0.67 0.66 0.62 0.63 0.64 0.57 0.50 0.42 0.33 0.28 0.23 0.14 0.19 0.19 0.20 0.19 0.30 0.33
0.55 0.54 0.53 0.54 0.56 0.60 0.60 0.67 0.72 0.70 0.58 0.57 0.59 0.61 0.63 0.66 0.68 0.70 0.67 0.69 0.61 0.59 0.67 0.56 0.58 0.58 0.59 0.65 0.67 0.65 0.62 0.59 0.58 0.52 0.44 0.42 0.31 0.25 0.24 0.25 0.22 0.22 0.20 0.19 0.22 0.28 0.28
0.54 0.55 0.54 0.55 0.57 0.63 0.67 0.68 0.70 0.68 0.59 0.57 0.54 0.55 0.59 0.63 0.66 0.68 0.63 0.51 0.59 0.64 0.49 0.64 0.64 0.62 0.63 0.65 0.52 0.58 0.64 0.49 0.46 0.40 0.46 0.34 0.27 0.31 0.29 0.27 0.23 0.21 0.19 0.19 0.24 0.26 0.25
0.55 0.56 0.57 0.56 0.60 0.66 0.69 0.73 0.72 0.65 0.59 0.59 0.57 0.56 0.54 0.59 0.65 0.62 0.54 0.56 0.68 0.68 0.47 0.51 0.57 0.55 0.56 0.59 0.49 0.49 0.58 0.49 0.40 0.39 0.40 0.29 0.31 0.34 0.29 0.25 0.21 0.21 0.19 0.19 0.19 0.23 0.24
0.57 0.56 0.56 0.56 0.59 0.67 0.70 0.68 0.76 0.69 0.55 0.60 0.59 0.56 0.54 0.56 0.50 0.57 0.50 0.65 0.68 0.64 0.34 0.38 0.45 0.49 0.58 0.58 0.44 0.59 0.58 0.47 0.40 0.39 0.37 0.34 0.37 0.30 0.27 0.23 0.23 0.17 0.25 0.23 0.21 0.19 0.15
0.61 0.59 0.58 0.57 0.60 0.65 0.69 0.69 0.71 0.74 0.60 0.56 0.58 0.56 0.54 0.54 0.49 0.46 0.55 0.65 0.63 0.55 0.19 0.37 0.43 0.59 0.54 0.44 0.45 0.46 0.57 0.47 0.38 0.39 0.36 0.32 0.32 0.28 0.25 0.25 0.26 0.20 0.26 0.23 0.21 0.19 0.18
0.63 0.62 0.60 0.59 0.62 0.67 0.69 0.70 0.69 0.72 0.66 0.57 0.53 0.55 0.56 0.52 0.50 0.52 0.59 0.58 0.52 0.26 0.19 0.30 0.39 0.38 0.37 0.40 0.39 0.44 0.46 0.49 0.50 0.39 0.35 0.35 0.42 0.34 0.30 0.31 0.29 0.28 0.23 0.22 0.21 0.18 0.13
0.60 0.63 0.61 0.59 0.63 0.68 0.68 0.69 0.69 0.71 0.71 0.59 0.54 0.53 0.51 0.56 0.44 0.61 0.57 0.46 0.24 0.16 0.29 0.27 0.29 0.34 0.32 0.31 0.33 0.37 0.36 0.33 0.30 0.24 0.23 0.29 0.29 0.35 0.33 0.24 0.28 0.23 0.18 0.12 0.12 0.12 0.11
0.56 0.59 0.60 0.58 0.60 0.66 0.68 0.67 0.68 0.71 0.71 0.62 0.55 0.56 0.55 0.57 0.64 0.61 0.51 0.32 0.17 0.24 0.24 0.34 0.32 0.30 0.27 0.31 0.31 0.32 0.30 0.26 0.30 0.26 0.23 0.19 0.16 0.25 0.31 0.24 0.19 0.19 0.16 0.11 0.08 0.09 0.11
0.56 0.55 0.54 0.55 0.57 0.59 0.63 0.64 0.65 0.70 0.70 0.65 0.58 0.56 0.48 0.54 0.66 0.61 0.39 0.19 0.19 0.23 0.32 0.27 0.25 0.23 0.24 0.28 0.28 0.27 0.26 0.25 0.26 0.27 0.19 0.16 0.16 0.30 0.30 0.29 0.25 0.18 0.15 0.19 0.13 0.14 0.11
0.56 0.55 0.53 0.53 0.55 0.57 0.58 0.59 0.60 0.65 0.71 0.68 0.56 0.51 0.51 0.56 0.61 0.48 0.27 0.21 0.26 0.33 0.32 0.31 0.21 0.22 0.19 0.22 0.21 0.23 0.22 0.27 0.25 0.28 0.28 0.20 0.14 0.25 0.28 0.30 0.25 0.20 0.21 0.14 0.14 0.09 0.08
0.56 0.53 0.51 0.51 0.51 0.52 0.55 0.55 0.56 0.62 0.66 0.68 0.58 0.41 0.58 0.58 0.50 0.32 0.18 0.23 0.30 0.35 0.33 0.27 0.24 0.22 0.20 0.20 0.21 0.19 0.20 0.25 0.27 0.25 0.26 0.25 0.19 0.19 0.25 0.20 0.18 0.17 0.15 0.15 0.14 0.12 0.08
0.58 0.56 0.52 0.49 0.47 0.46 0.48 0.51 0.53 0.55 0.61 0.61 0.52 0.35 0.61 0.59 0.29 0.29 0.23 0.26 0.27 0.25 0.29 0.29 0.30 0.25 0.22 0.22 0.20 0.20 0.19 0.23 0.30 0.27 0.20 0.23 0.18 0.15 0.17 0.23 0.26 0.23 0.17 0.15 0.11 0.10 0.12
0.55 0.56 0.52 0.50 0.47 0.44 0.43 0.45 0.47 0.52 0.55 0.47 0.36 0.39 0.57 0.50 0.29 0.27 0.28 0.26 0.26 0.22 0.18 0.22 0.23 0.27 0.26 0.22 0.18 0.22 0.23 0.31 0.30 0.25 0.20 0.21 0.15 0.11 0.13 0.17 0.22 0.19 0.20 0.19 0.17 0.16 0.12
0.57 0.54 0.53 0.50 0.47 0.44 0.41 0.43 0.45 0.45 0.50 0.42 0.31 0.25 0.36 0.42 0.39 0.34 0.30 0.28 0.26 0.31 0.25 0.24 0.18 0.22 0.22 0.20 0.23 0.20 0.22 0.27 0.29 0.26 0.27 0.23 0.16 0.13 0.10 0.12 0.16 0.15 0.17 0.18 0.17 0.13 0.12
0.55 0.58 0.54 0.51 0.47 0.43 0.40 0.42 0.42 0.44 0.44 0.38 0.31 0.26 0.32 0.26 0.32 0.35 0.36 0.35 0.30 0.27 0.32 0.32 0.24 0.21 0.15 0.11 0.14 0.17 0.21 0.22 0.26 0.28 0.25 0.20 0.13 0.14 0.14 0.15 0.16 0.15 0.14 0.17 0.15 0.15 0.12
0.55 0.58 0.56 0.53 0.50 0.46 0.41 0.42 0.44 0.43 0.41 0.31 0.23 0.25 0.33 0.30 0.34 0.32 0.33 0.31 0.32 0.34 0.32 0.29 0.29 0.31 0.28 0.24 0.21 0.13 0.13 0.15 0.14 0.21 0.19 0.20 0.13 0.15 0.12 0.16 0.15 0.12 0.13 0.13 0.15 0.16 0.15
0.54 0.56 0.56 0.53 0.51 0.49 0.44 0.46 0.45 0.43 0.39 0.28 0.35 0.40 0.32 0.30 0.30 0.27 0.27 0.30 0.32 0.37 0.39 0.40 0.36 0.32 0.31 0.34 0.36 0.35 0.33 0.32 0.27 0.22 0.18 0.15 0.13 0.13 0.13 0.21 0.21 0.16 0.18 0.20 0.18 0.20 0.19
0.56 0.56 0.56 0.55 0.52 0.51 0.44 0.47 0.47 0.47 0.43 0.36 0.36 0.35 0.27 0.22 0.31 0.31 0.32 0.34 0.32 0.35 0.36 0.41 0.42 0.38 0.42 0.48 0.45 0.43 0.41 0.39 0.36 0.32 0.32 0.26 0.24 0.25 0.21 0.23 0.13 0.21 0.29 0.28 0.25 0.27 0.28
0.56 0.57 0.58 0.57 0.55 0.53 0.45 0.47 0.46 0.47 0.49 0.38 0.42 0.36 0.29 0.25 0.29 0.31 0.33 0.35 0.38 0.40 0.40 0.42 0.46 0.49 0.53 0.46 0.37 0.32 0.31 0.32 0.34 0.37 0.35 0.34 0.29 0.24 0.20 0.19 0.21 0.24 0.28 0.28 0.27 0.28 0.35
0.57 0.57 0.57 0.57 0.56 0.54 0.48 0.43 0.42 0.46 0.51 0.48 0.42 0.47 0.37 0.26 0.24 0.32 0.31 0.36 0.33 0.34 0.37 0.43 0.53 0.56 0.53 0.43 0.36 0.27 0.24 0.28 0.28 0.33 0.41 0.38 0.36 0.29 0.26 0.21 0.18 0.26 0.34 0.38 0.38 0.26 0.40
0.56 0.56 0.57 0.57 0.57 0.56 0.54 0.48 0.43 0.44 0.48 0.49 0.44 0.50 0.39 0.28 0.32 0.35 0.31 0.33 0.40 0.38 0.34 0.39 0.44 0.46 0.53 0.41 0.34 0.31 0.28 0.34 0.27 0.28 0.30 0.33 0.33 0.28 0.28 0.26 0.28 0.37 0.41 0.44 0.27 0.29 0.44
0.59 0.63 0.62 0.61 0.60 0.61 0.59 0.55 0.48 0.45 0.46 0.47 0.45 0.55 0.41 0.32 0.33 0.41 0.44 0.39 0.41 0.42 0.35 0.42 0.41 0.43 0.43 0.37 0.36 0.34 0.33 0.35 0.34 0.35 0.34 0.32 0.30 0.30 0.31 0.28 0.24 0.43 0.42 0.35 0.41 0.48 0.48
0.65 0.62 0.61 0.64 0.63 0.64 0.64 0.61 0.54 0.49 0.47 0.49 0.38 0.57 0.58 0.41 0.36 0.50 0.55 0.58 0.53 0.52 0.46 0.46 0.41 0.42 0.44 0.40 0.40 0.40 0.36 0.38 0.35 0.29 0.41 0.32 0.37 0.34 0.35 0.34 0.44 0.48 0.47 0.52 0.52 0.49 0.50
Wind_Speed
17 18 19 19 18 18 18 18 19 20 21 21 22 23 23 24 24 24 18 13 8 6 6 8 12 14 15 15 17 13 14 20 27 28 31 32 33 34 34 35 33 31 30 27 25 23 22
17 18 19 20 20 20 20 19 19 19 20 20 20 21 22 23 24 24 21 15 10 6 4 7 8 12 13 14 14 14 12 18 22 26 28 31 32 33 33 34 33 33 28 27 25 23 21
16 18 19 21 21 22 22 21 20 19 19 19 19 20 21 22 23 24 22 18 13 8 3 5 8 9 11 14 13 12 12 16 20 23 26 30 31 32 31 31 33 29 28 27 25 24 21
16 18 19 20 22 23 23 22 21 19 19 19 18 19 20 21 22 22 22 19 15 11 3 4 7 7 8 11 13 11 12 15 18 20 23 29 31 30 30 30 30 28 27 27 26 25 22
15 17 19 20 22 23 24 23 22 20 19 19 19 19 19 20 21 22 20 19 17 13 5 1 4 4 7 9 11 11 11 15 16 18 21 26 29 29 29 30 28 27 28 28 25 24 22
14 16 19 21 22 24 24 24 23 21 20 18 19 19 18 19 19 20 20 20 16 13 9 7 5 3 4 7 8 10 10 15 15 16 19 24 27 27 28 29 32 30 26 26 25 24 22
13 16 18 20 22 24 25 24 23 22 20 19 19 19 17 18 18 18 19 18 19 13 10 5 3 3 4 6 7 8 10 13 14 15 18 22 26 27 29 29 28 28 25 25 23 21 22
13 15 17 19 21 23 26 25 23 22 20 21 20 18 17 17 17 17 17 15 17 15 12 8 5 4 5 6 7 7 11 11 13 16 17 19 25 24 25 26 25 25 25 23 21 22 21
12 14 16 18 20 23 25 26 24 21 20 21 21 20 17 16 15 17 16 13 13 13 14 12 10 8 6 6 6 7 11 11 13 15 17 20 22 22 23 23 23 22 24 23 21 20 19
13 14 15 17 19 21 24 25 25 22 19 19 21 21 18 16 17 15 15 15 11 10 11 11 8 7 6 7 6 8 8 10 11 16 16 17 19 21 22 20 20 21 21 21 20 18 18
12 14 16 17 19 20 22 24 24 23 20 18 20 21 19 17 16 16 15 15 13 10 10 8 8 7 6 5 8 6 8 9 13 14 15 15 17 18 19 19 18 19 19 19 19 18 16
12 14 15 17 18 20 21 23 24 22 20 18 18 19 17 17 17 16 16 15 14 14 10 10 8 8 9 7 7 9 8 10 14 13 11 14 16 16 17 17 17 19 16 14 16 16 16
11 13 15 16 18 20 21 22 23 22 20 18 19 18 17 16 17 16 15 16 16 15 10 9 9 9 9 9 9 7 8 9 11 12 10 12 13 14 15 16 16 15 15 13 13 15 18
10 12 14 15 17 19 20 22 23 22 19 17 17 18 18 15 15 15 14 15 17 14 13 12 9 8 9 8 8 8 9 10 10 11 11 13 11 14 14 14 16 15 16 15 16 15 16
10 11 13 14 16 17 19 21 22 22 19 16 14 16 17 16 14 13 13 15 12 12 12 12 9 8 7 6 7 8 7 9 10 9 10 11 9 13 13 14 14 16 15 14 11 11 11
9 11 12 13 15 16 18 20 21 22 20 15 14 14 16 15 14 12 13 11 10 11 10 10 10 9 6 5 5 6 6 6 7 7 8 9 9 11 12 13 13 14 15 12 12 12 14
11 11 12 13 14 15 17 18 20 21 19 15 15 13 16 14 13 13 11 9 9 10 10 9 8 7 7 5 4 4 5 5 6 6 7 8 7 9 11 14 15 13 13 12 12 12 12
12 13 13 14 14 15 16 17 19 20 18 15 14 14 14 13 13 11 11 9 9 9 9 8 7 6 6 6 4 3 2 3 4 5 6 6 7 8 11 11 13 14 14 14 13 15 12
15 15 15 15 15 16 16 17 18 19 17 14 13 12 13 14 12 11 9 9 9 9 8 8 6 6 4 3 3 2 2 2 2 4 5 6 6 5 5 9 11 14 15 14 13 13 15
18 17 17 17 17 17 17 17 18 18 17 14 12 12 13 13 13 11 10 8 9 8 7 7 6 5 4 3 3 1 1 1 2 4 4 5 6 7 9 7 8 12 14 16 15 13 14
21 20 19 19 19 18 18 18 18 18 17 14 13 11 11 12 13 12 12 10 8 7 7 7 6 5 5 4 3 2 2 1 2 3 4 5 6 6 9 10 10 11 12 14 17 15 16
24 23 23 22 21 20 20 20 20 19 18 14 13 12 13 12 12 12 12 11 10 10 8 7 6 6 5 5 4 5 3 4 5 5 5 6 7 7 9 9 11 14 16 16 17 18 21
28 27 25 24 24 23 23 22 21 20 18 16 15 14 14 14 14 13 13 12 12 12 10 10 9 8 9 9 8 7 6 6 7 7 8 8 8 8 11 10 12 15 16 17 16 17 18
32 30 29 28 27 26 25 24 23 22 20 18 17 17 16 17 16 16 15 14 14 14 13 12 11 11 11 10 10 11 11 11 10 10 10 9 9 10 11 11 12 13 11 13 14 16 18
35 34 32 31 30 29 27 26 25 24 22 21 20 20 19 19 18 19 17 16 16 16 15 15 14 13 13 13 13 12 13 13 13 13 15 14 13 13 13 15 18 14 16 15 16 16 18
38 37 36 34 33 32 31 29 28 26 25 24 24 23 22 20 21 18 17 18 17 17 17 16 15 15 15 14 14 14 14 14 13 12 12 13 15 16 15 17 18 16 16 16 18 19 19
42 41 39 38 37 35 33 31 31 30 28 27 26 25 24 24 23 22 22 20 19 18 18 18 17 17 17 16 17 17 18 16 17 16 15 15 17 19 19 21 23 22 22 20 19 21 20
46 45 43 42 40 38 37 36 34 33 31 30 30 29 29 28 28 27 26 24 23 22 21 20 19 19 18 17 17 18 18 18 18 18 18 18 17 19 18 20 25 21 21 21 21 21 21
48 47 47 45 44 43 41 39 38 36 35 33 32 31 30 30 30 30 30 29 27 26 24 23 23 21 21 19 20 19 20 19 19 20 19 20 20 19 21 21 21 21 21 21 23 25 26
Wind_Direction
23 22 20 17 13 8 2 359 356 356 356 357 360 1 3 3 4 4 2 1 342 305 260 237 222 214 215 218 222 227 230 217 209 211 210 209 208 208 209 209 208 212 213 214 217 217 220
23 22 20 19 17 12 7 3 360 358 358 358 359 1 4 5 7 7 7 359 348 319 278 229 217 211 214 215 220 223 223 205 207 208 208 206 207 208 208 208 208 210 211 213 216 218 220
23 21 20 18 16 14 11 6 3 1 1 0 360 2 3 5 6 7 7 8 5 351 292 227 211 209 211 215 214 216 215 205 205 207 206 205 204 205 206 205 206 207 207 211 214 217 218
21 21 19 17 15 14 12 9 6 4 2 3 2 2 3 5 5 6 9 10 8 356 318 228 200 201 208 208 207 209 207 202 202 205 205 202 202 204 204 204 203 204 207 208 214 215 218
20 20 18 16 15 14 13 11 9 7 5 5 4 3 3 3 6 9 12 12 13 17 31 96 166 185 208 199 201 206 205 199 198 201 201 199 198 201 201 199 201 206 206 208 211 214 218
18 18 18 17 16 14 12 11 11 10 9 7 6 5 5 6 9 12 15 16 17 33 59 76 124 126 168 185 193 192 198 191 196 195 195 194 195 198 200 199 202 202 202 208 210 215 218
15 16 16 16 16 15 14 12 12 13 13 11 7 7 7 8 10 12 16 23 31 40 53 76 109 110 148 159 169 178 185 185 188 189 191 193 192 198 200 200 202 202 203 206 212 216 218
13 13 14 15 15 15 15 14 13 14 15 15 13 9 9 9 13 17 20 27 38 44 49 62 83 96 139 149 155 172 174 181 184 185 185 187 192 195 193 196 197 200 200 206 212 215 218
12 11 11 12 14 14 15 16 15 14 17 18 18 14 13 14 18 21 23 26 32 41 55 61 78 94 111 135 146 162 166 174 177 179 182 182 189 191 191 192 194 200 200 205 209 214 221
14 11 10 10 11 12 14 15 16 16 17 18 18 18 21 25 25 23 24 27 33 43 57 49 58 73 89 116 119 145 164 168 167 171 171 175 186 186 186 190 196 198 203 203 206 212 220
13 12 11 9 8 10 12 14 15 18 18 18 18 20 26 27 29 29 26 31 37 46 49 31 49 65 91 107 130 135 148 156 161 164 169 176 178 180 184 192 197 196 200 203 209 213 219
9 10 10 10 10 9 10 12 14 16 18 20 19 20 28 28 29 31 34 38 43 46 48 47 55 71 88 94 107 126 134 142 157 156 159 169 176 178 185 189 194 190 194 200 209 216 227
1 5 7 9 10 11 11 11 11 13 16 20 21 23 25 27 29 36 40 44 43 52 44 47 62 73 84 91 98 110 125 138 154 152 159 166 178 182 183 183 191 194 194 208 216 223 226
350 356 0 3 6 9 10 11 11 11 12 17 21 24 25 27 29 33 37 38 46 46 50 54 64 78 90 88 85 99 119 134 147 145 153 164 181 183 188 191 196 198 200 204 211 218 230
337 345 351 357 0 3 6 8 9 10 10 13 18 20 22 23 26 29 34 39 43 45 46 45 52 71 78 93 98 95 108 137 143 153 155 163 177 186 187 195 196 201 207 208 204 228 233
320 331 340 347 352 356 359 3 6 7 9 11 11 14 16 19 24 28 35 43 43 44 44 47 46 61 78 99 99 106 118 132 138 143 154 169 162 185 193 196 200 207 203 212 226 222 235
303 316 326 334 341 346 351 355 359 3 6 9 9 11 9 16 21 27 34 32 29 30 32 38 49 48 56 68 86 121 133 131 154 151 155 160 166 191 194 202 204 208 216 221 222 230 230
291 302 312 320 328 334 340 345 350 355 358 3 6 8 8 10 15 17 22 22 19 18 22 26 35 48 61 61 66 91 123 146 150 163 167 169 166 182 199 208 214 218 222 221 226 235 243
283 292 301 309 315 322 329 335 340 346 349 350 356 359 2 7 10 6 5 6 9 12 13 18 21 25 34 59 62 82 93 142 164 178 177 181 186 183 211 219 223 224 224 226 232 241 240
275 283 292 299 306 312 318 324 329 335 337 338 341 347 351 1 2 5 358 357 356 357 2 5 2 8 11 14 12 73 137 158 168 184 189 196 205 207 208 215 212 224 229 231 234 242 244
271 276 283 291 296 303 308 313 319 324 325 324 329 326 335 338 346 350 350 345 341 340 337 345 347 353 345 333 326 306 297 254 240 229 218 214 228 231 241 239 238 241 237 234 237 246 246
267 273 277 282 288 294 300 304 309 314 313 311 312 314 318 322 328 333 336 331 330 328 317 314 313 315 312 304 298 299 273 264 256 253 241 251 246 241 249 246 243 251 249 246 251 255 261
264 269 274 278 282 286 291 295 301 305 304 300 300 303 306 308 312 317 314 319 319 319 313 308 299 297 293 286 283 281 272 272 268 256 248 254 247 255 261 265 267 265 258 248 255 260 259
263 266 270 274 278 281 285 288 292 295 297 292 291 294 297 297 300 301 303 304 305 306 304 300 296 294 292 286 283 281 277 273 267 263 257 254 258 261 263 270 263 265 266 260 257 264 261
262 264 268 270 273 277 280 282 284 287 288 286 287 288 289 291 293 297 294 295 301 301 298 292 289 289 288 289 289 287 282 278 272 268 261 260 258 265 265 262 273 268 269 266 263 271 276
261 263 265 267 270 273 275 277 278 281 282 281 282 284 284 286 288 288 289 290 292 293 296 291 290 285 284 284 280 275 273 274 271 269 270 263 263 261 267 266 267 269 270 270 271 271 274
260 261 262 264 266 269 272 273 273 275 277 277 278 279 280 281 283 282 283 283 285 286 286 289 287 282 281 278 275 273 273 270 270 265 265 267 267 261 263 268 275 270 271 273 270 272 273
259 260 261 262 264 266 268 269 270 271 273 274 275 274 275 276 278 277 278 280 280 278 281 282 286 282 279 274 273 275 273 273 275 271 267 263 262 265 267 270 276 271 273 269 273 275 276
259 259 260 260 262 264 265 266 267 268 270 270 271 271 272 274 277 278 278 277 272 273 274 274 278 276 271 273 272 274 273 274 273 275 273 272 266 269 262 269 274 273 276 275 276 279 281